Regional Weather Roundup
Issued by NWS

Home | Current Version | Previous Version | Text Only | Print | Product List | Glossary Off
Versions: 1 2 3 4 5 6 7 8 9 10 11 12 13 14 15 16 17 18 19 20 21 22 23 24 25 26 27 28 29 30 31 32 33 34 35 36 37 38 39 40 41 42 43 44 45 46 47 48 49 50

271
ASUS43 KBIS 241102
RWRND

NORTH DAKOTA REGIONAL WEATHER ROUNDUP
NATIONAL WEATHER SERVICE BISMARCK ND
600 AM CDT FRI MAR 24 2017

NOTE: "FAIR" INDICATES FEW OR NO CLOUDS BELOW 12,000 FEET WITH NO
SIGNIFICANT WEATHER AND/OR OBSTRUCTIONS TO VISIBILITY.


NDZ001>003-009>011-017-241200-
NORTHWEST NORTH DAKOTA

CITY           SKY/WX    TMP DP  RH WIND       PRES   REMARKS
WILLISTON      FAIR      27  25  92 CALM      30.06R
MINOT          FAIR      25  22  88 NW7       30.06R WCI  17
MINOT AFB      CLEAR     26  24  91 N5        30.07R
$$

NDZ018>021-031>035-040>046-241200-
SOUTHWEST NORTH DAKOTA

CITY           SKY/WX    TMP DP  RH WIND       PRES   REMARKS
BISMARCK       FAIR      28  26  92 CALM      30.05R
DICKINSON      FOG       31  31 100 NE3       30.01R VSB 1/4
GARRISON         N/A     26  24  92 N3        30.04R
HETTINGER ARPT PTCLDY    26  25  96 NW6       30.01R FOG     WCI  19
$$

NDZ004>008-012>016-024-026-027-054-241200-
NORTHEAST NORTH DAKOTA

CITY           SKY/WX    TMP DP  RH WIND       PRES   REMARKS
GRAND FORKS    CLOUDY    31  29  92 N12       30.03R
GRND FRKS AFB  CLOUDY    29  26  88 N12       30.04R WCI  20
DEVILS LAKE    FAIR      27  24  89 N12       30.06R WCI  17
$$

NDZ022-023-025-028>030-036>039-047>053-241200-
SOUTHEAST NORTH DAKOTA

CITY           SKY/WX    TMP DP  RH WIND       PRES   REMARKS
FARGO          CLOUDY    35  34  96 N8        30.00R FOG
JAMESTOWN      FAIR      30  29  96 N9        30.00R
$$





USA.gov is the U.S. government's official web portal to all federal, state and local government web resources and services.